Other Public Products
Issued by NWS Grand Forks, ND

Home | Current Version | Previous Version | Graphics & Text | Print | Product List | Glossary On
Versions: 1 2 3 4 5 6 7 8 9 10 11 12 13 14 15 16 17 18 19 20 21 22 23 24 25 26 27 28 29 30 31 32 33 34 35 36 37 38 39 40 41 42 43 44 45 46 47 48 49 50
000
FPUS83 KFGF 240131
OPUFGF
PRAIRIE TO PINES WEATHER ROUNDUP
NATIONAL WEATHER SERVICE EASTERN NORTH DAKOTA/GRAND FORKS ND
800 PM CDT WED APR 23 2014

 **SATELLITE DATA USED TO AUGMENT SKY COVER AT AUTOMATED STATIONS**
 *****  WEATHER ACROSS EASTERN NORTH DAKOTA  *****

CITY           SKY/WX    TMP DP  RH WIND       PRES   REMARKS
GRAND FORKS    RAIN      41  39  93 SE24G30   29.84F FOG
GRAND FORKS AF LGT RAIN  41  41 100 SE20G32   29.82S
GRAND CITY NWS   N/A     39 N/A N/A SE12        N/A
BUXTON           N/A     40  39  99 E17G29      N/A
DEVILS LAKE    CLOUDY    37  34  87 SE21G29   29.73R
FARGO          HVY RAIN  40  37  89 E22G31    29.79S FOG
WAHPETON ARPT  CLOUDY    41  36  81 SE21G29   29.79F
$$

 *****  WEATHER ACROSS CENTRAL AND WESTERN NORTH DAKOTA  *****

CITY           SKY/WX    TMP DP  RH WIND       PRES   REMARKS
JAMESTOWN      CLOUDY    41  38  89 SE21G33   29.70R
BISMARCK       CLOUDY    51  40  65 NW12      29.66R
MINOT          LGT RAIN  46  44  93 SW5       29.61R
MINOT AFB      CLOUDY    45  43  93 SE8       29.61R
GARRISON         N/A     46  42  86 NW13      29.62R
WILLISTON      CLOUDY    55  40  56 CALM      29.58R
DICKINSON      MOCLDY    55  26  32 W20       29.62R
HETTINGER      PTCLDY    52  31  44 W15G22    29.68R
$$

 *****  OTHER OBSERVATIONS NORTHEAST NORTH DAKOTA  *****

CITY           SKY/WX    TMP DP  RH WIND       PRES   REMARKS
WALHALLA       LGT RAIN  41  41 100 SE22G28   29.84R
LANGDON        MIX PCPN  37  36  93 SE28G35   29.77F
CAVALIER       MIX PCPN  41  39  93 SE15G23   29.86R
GRAFTON        MIX PCPN  41  41 100 SE20G31   29.85R
CANDO          MIX PCPN  39  37  93 SE25G31   29.73R
FORT TOTTEN      N/A     40  38  95 SE15      29.95S
ROLLA          MIX PCPN  37  37 100 SE23G32   29.72R
RUGBY          CLOUDY    39  39 100 SE24      29.66F FOG
 ***** THE ABOVE OBSERVATIONS ARE NON NWS ARE NOT QUALITY
        CONTROLLED AND MAY MIS-REPORT RAIN FOR SNOW...
$$

 *****  OTHER OBSERVATIONS SOUTHEAST NORTH DAKOTA *****

CITY           SKY/WX    TMP DP  RH WIND       PRES   REMARKS
COOPERSTOWN    MIX PCPN  39  39 100 SE25G37   29.75R
VALLEY CITY    CLOUDY    39  39 100 SE17G28   29.75S FOG
OAKES          CLOUDY    41  41 100 E14G20    29.71S
GWINNER        CLOUDY    41  41 100 SE24G30   29.73S
BUFFALO          N/A     40  37  87 SE22        N/A
WYNDMERE       NOT AVBL
 ***** THE ABOVE OBSERVATIONS ARE NON NWS ARE NOT QUALITY
       CONTROLLED AND MAY MIS-REPORT RAIN FOR SNOW...
$$

  *****  WEATHER ACROSS NORTHERN MINNESOTA  *****

CITY           SKY/WX    TMP DP  RH WIND       PRES   REMARKS
FLAG ISLAND    CLOUDY    48  21  34 E10G17    29.89S
WARROAD        CLOUDY    48  30  49 SE9       29.92R
ROSEAU         DRIZZLE   46  34  61 SE13G18   29.92R
HALLOCK        LGT RAIN  43  39  87 SE25G31   29.88F
THF RVR FALLS  CLOUDY    39  36  87 E18G26    29.90F
HALSTAD          N/A     39  39  99 SE23        N/A
FOSSTON        LGT RAIN  36  36 100 SE9G21    29.90S
BAUDETTE       CLOUDY    51  25  36 S8        29.91S
WASKISH        LGT RAIN  43  37  81 SE10G16   29.95R
CROOKSTON      MIX PCPN  39  39 100 SE20G25   29.87F
$$
  *****  WEATHER ACROSS CENTRAL AND WEST MINNESOTA  *****

CITY           SKY/WX    TMP DP  RH WIND       PRES   REMARKS
BEMIDJI        LGT RAIN  34  33  95 SE13      29.92F WCI  25
PARK RAPIDS    LGT SNOW  33  33 100 E10       29.90F FOG     WCI  25
WADENA         CLOUDY    37  36  93 SE23      29.87S
DETROIT LAKES  LGT RAIN  36  36 100 SE18G29   29.86S
MOORHEAD       RAIN      41  41 100 SE15G23   29.80F
FERGUS FALLS   CLOUDY    41  34  75 SE21G31   29.79R
ELBOW LAKE     CLOUDY    40  36  83 SE18G28   29.82R
MORRIS MN      CLOUDY    43  36  75 SE22      29.80R
STAPLES        CLOUDY    36  36 100 SE6       29.91R
WHEATON        CLOUDY    45  39  81 E23G33    29.80S
$$
  *****  WEATHER ELSEWHERE ACROSS MINNESOTA  *****

CITY           SKY/WX    TMP DP  RH WIND       PRES   REMARKS
DULUTH         CLOUDY    41  23  48 E14       29.99S
INTRNTL FALLS  CLOUDY    50  21  32 SE8       29.94S
ELY            CLOUDY    45  18  33 E6        30.00S
CLOQUET        CLOUDY    39  25  56 E7        29.99R
BRAINERD       LGT RAIN  42  35  76 VRB5      29.95F
HIBBING        CLOUDY    47  24  40 SE12      29.97R
ALEXANDRIA     CLOUDY    40  36  86 E20G26    29.85F
SAINT CLOUD    CLOUDY    41  37  86 E8        29.91F
MINNEAPOLIS    RAIN      42  39  89 E17G25    29.93F
$$

  *****  WEATHER ACROSS SOUTH DAKOTA  *****

CITY           SKY/WX    TMP DP  RH WIND       PRES   REMARKS
SIOUX FALLS    MOCLDY    54  40  59 SE18      29.66R
BROOKINGS      NOT AVBL
WATERTOWN      CLOUDY    47  38  71 SE21G32   29.67S
HURON          MOCLDY    63  42  46 SE16G28   29.56R
SISSETON         N/A     42  37  82 SE22G28   29.74R
ABERDEEN       MOCLDY    48  41  76 E17G23    29.65R
MITCHELL       CLOUDY    63  44  50 SE22G31   29.57R
PIERRE         CLOUDY    57  38  48 NW22G32   29.61R
MOBRIDGE       CLOUDY    56  40  55 NW17      29.62R
RAPID CITY     MOCLDY    54  34  46 N24G31    29.69R
$$

  *****  SOME WEATHER IN NEARBY STATES *****

CITY           SKY/WX    TMP DP  RH WIND       PRES   REMARKS
GLASGOW MT     MOSUNNY   58  20  22 W21G37    29.56R
GREAT FALLS MT MOSUNNY   43  25  49 SW24G36   29.72R
CHEYENNE WY    CLOUDY    50  15  24 NW18G30   29.76R
SCOTTSBLUFF NE CLOUDY    59  11  15 NW18G28   29.72R
OMAHA NE       CLOUDY    56  45  66 SE17      29.63S
DES MOINES IA  LGT RAIN  50  40  68 SE20G32   29.81F
DAVENPORT IA   CLOUDY    48  39  71 SE12      29.99F
CHICAGO IL     CLOUDY    42  18  37 NE10      30.12R
EAU CLAIRE WI  LGT RAIN  43  38  82 SE7       29.99S
LA CROSSE WI   LGT RAIN  45  36  70 SE8       29.99R
$$

  *****  SOME NATIONAL WEATHER *****

CITY           SKY/WX    TMP DP  RH WIND       PRES   REMARKS
LA GUARDIA NY  MOCLDY    47  29  49 NW26G39   29.77R
RALEIGH NC     PTCLDY    62  29  28 CALM      29.92R
ATLANTA GA     CLEAR     67  34  29 NW8       29.93R
NEW ORLEANS LA PTCLDY    74  64  71 S12       29.90R
OKLAHOMA CITY  CLOUDY    78  54  43 S18       29.70R
ALBUQUERQUE NM CLOUDY    64  23  21 N18G30    29.82R
SALT LAKE CITY MOSUNNY   51  16  24 VRB3      30.05
LOS ANGELES CA MOSUNNY   66  47  50 W13       29.92S
BOISE ID       MOSUNNY   55  27  34 SE3       29.95F
SEATTLE WA     LGT RAIN  50  45  81 SE8       29.80F
$$

*** WEATHER ACROSS MANITOBA...SASKATCHEWAN AND ONTARIO ***
                ***ONTARIO***

CITY           SKY/WX    TMP DP  RH WIND       PRES   REMARKS
GERALDTON      PTCLDY    43  25  49 CALM      30.07S
THUNDER BAY    CLOUDY    45  19  36 VRB2      30.07F
SIOUX LOOKOUT  CLOUDY    45  23  42 E2        29.99F
TORONTO        PTCLDY    43  16  33 NW15      30.04R
BIG TROUT LK   MOCLDY    41  19  42 E7        30.08S
PICKLE LAKE    PTCLDY    48  23  37 E6        30.02S
DRYDEN         MOCLDY    48  19  32 E5        29.97F
KENORA         CLOUDY    48  23  37 SE6       29.94F
$$
                *** MANITOBA***

CITY           SKY/WX    TMP DP  RH WIND       PRES   REMARKS
BRANDON        LGT RAIN  41  39  93 SE23G29   29.75F
DAUPHIN        LGT RAIN  43  39  87 SE18G25   29.82R
ISLAND LAKE    PTCLDY    46  36  66 NE8G20    30.04R
PILOT MOUND      N/A     39  36  87 SE26G35     N/A
THE PAS        CLOUDY    46  23  39 E8        29.89S
THOMPSON       PTCLDY    34  25  69 NE16G23   30.15S WCI  23
WINNIPEG       LGT RAIN  45  41  87 S17       29.90R
LYNN LAKE      CLEAR     32  23  69 E15G22    30.13R WCI  22
CHURCHILL      FLURRIES  23  18  80 N15       30.38R WCI  10
GILLAM         CLOUDY    27  21  80 NE18      30.26S WCI  13
$$
                ***SASKATCHEWAN***

CITY           SKY/WX    TMP DP  RH WIND       PRES   REMARKS
ESTEVAN        LGT RAIN  45  43  93 W13       29.56R
KINDERSLEY     CLOUDY    45  37  76 W21       29.48R
LLOYDMINSTER   LGT RAIN  39  37  93 SE23G30   29.48S FOG
PRINCE ALBERT  LGT RAIN  43  39  87 E18G28    29.64S
REGINA         LGT RAIN  43  43 100 SW6       29.51S
YORKTON        LGT RAIN  41  39  93 E23G32    29.66F



USA.gov is the U.S. government's official web portal to all federal, state and local government web resources and services.